KB6LA Weather Reports


time (UTC)temp
C
wind
direction
speed
KPH
gust
KPH
rain 1hr
cm
rain 24hr
cm
rain mn
cm
humidity
%
barometer
mb
20260506212501 18 244 14.5 25.7 0.00 0.00 0.00 63 1016.2
20260506211952 18 238 6.4 24.1 0.00 0.00 0.00 64 1016.2
20260506211445 18 229 12.9 24.1 0.00 0.00 0.00 63 1016.2
20260506210938 18 296 11.3 24.1 0.00 0.00 0.00 63 1016.2
20260506210431 18 244 20.9 27.4 0.00 0.00 0.00 61 1016.2
20260506205923 18 240 16.1 27.4 0.00 0.00 0.00 62 1016.2
20260506205416 18 241 9.7 24.1 0.00 0.00 0.00 61 1016.2
20260506204909 18 239 14.5 20.9 0.00 0.00 0.00 61 1016.2
20260506203347 19 263 14.5 17.7 0.00 0.00 0.00 59 1016.5
20260506202840 18 265 11.3 20.9 0.00 0.00 0.00 62 1016.5
20260506202332 19 235 17.7 20.9 0.00 0.00 0.00 61 1016.5
20260506201824 18 242 12.9 24.1 0.00 0.00 0.00 62 1016.5
20260506201318 18 235 12.9 24.1 0.00 0.00 0.00 63 1016.8
20260506200810 18 252 14.5 22.5 0.00 0.00 0.00 63 1016.8
20260506200303 18 245 14.5 22.5 0.00 0.00 0.00 63 1016.8
20260506195756 18 210 14.5 24.1 0.00 0.00 0.00 64 1016.8
20260506195249 18 216 14.5 24.1 0.00 0.00 0.00 62 1016.8
20260506194742 18 277 12.9 22.5 0.00 0.00 0.00 62 1016.8
20260506194234 18 220 17.7 20.9 0.00 0.00 0.00 61 1016.8
20260506193727 18 300 9.7 22.5 0.00 0.00 0.00 64 1016.8
20260506193220 18 239 14.5 22.5 0.00 0.00 0.00 61 1016.8
20260506192712 18 220 9.7 22.5 0.00 0.00 0.00 65 1016.8
20260506191657 19 240 9.7 16.1 0.00 0.00 0.00 62 1017.2
20260506191150 18 234 11.3 20.9 0.00 0.00 0.00 62 1016.8
20260506190643 18 239 14.5 20.9 0.00 0.00 0.00 63 1017.2
20260506190136 18 253 12.9 25.7 0.00 0.00 0.00 64 1017.2
20260506185629 18 238 17.7 25.7 0.00 0.00 0.00 63 1017.2
20260506184614 18 222 11.3 17.7 0.00 0.00 0.00 64 1017.2
20260506184107 18 202 12.9 20.9 0.00 0.00 0.00 64 1017.2
20260506183600 17 202 12.9 20.9 0.00 0.00 0.00 65 1017.2
20260506183052 18 265 14.5 17.7 0.00 0.00 0.00 65 1017.2
20260506182545 18 257 12.9 24.1 0.00 0.00 0.00 66 1017.2
20260506181023 18 256 9.7 16.1 0.00 0.00 0.00 64 1017.5
20260506180515 18 243 12.9 20.9 0.00 0.00 0.00 65 1017.2
20260506180008 18 184 14.5 17.7 0.00 0.00 0.00 64 1017.2
20260506175501 18 202 8.0 16.1 0.00 0.00 0.00 67 1017.5
20260506174954 18 184 9.7 17.7 0.00 0.00 0.00 66 1017.5
20260506174446 18 204 9.7 17.7 0.00 0.00 0.00 67 1017.5
20260506173939 18 213 9.7 17.7 0.00 0.00 0.00 67 1017.2
20260506173431 18 255 9.7 16.1 0.00 0.00 0.00 65 1017.5
20260506172924 18 235 11.3 17.7 0.00 0.00 0.00 65 1017.2
20260506172417 19 167 8.0 17.7 0.00 0.00 0.00 65 1017.5
20260506171909 19 222 1.6 9.7 0.00 0.00 0.00 63 1017.2
20260506171402 19 151 3.2 11.3 0.00 0.00 0.00 60 1017.2
20260506170855 19 243 1.6 11.3 0.00 0.00 0.00 59 1017.2
20260506170348 20 1 3.2 9.7 0.00 0.00 0.00 57 1017.2
20260506165841 19 121 1.6 9.7 0.00 0.00 0.00 60 1017.2
20260506165334 19 95 6.4 9.7 0.00 0.00 0.00 61 1017.2
20260506164826 18 128 3.2 6.4 0.00 0.00 0.00 62 1017.2
20260506164319 18 150 3.2 6.4 0.00 0.00 0.00 63 1017.2
20260506163811 18 199 1.6 6.4 0.00 0.00 0.00 64 1017.2
20260506162250 17 94 3.2 12.9 0.00 0.00 0.00 66 1017.2
20260506161743 18 189 9.7 12.9 0.00 0.00 0.00 65 1017.2
20260506161235 17 19 3.2 6.4 0.00 0.00 0.00 69 1017.2
20260506160728 17 99 3.2 9.7 0.00 0.00 0.00 70 1017.2
20260506160221 17 161 6.4 9.7 0.00 0.00 0.00 70 1017.5
20260506155714 16 87 3.2 9.7 0.00 0.00 0.00 71 1017.2
20260506155206 17 174 4.8 6.4 0.00 0.00 0.00 70 1017.2
20260506153643 16 109 3.2 11.3 0.00 0.00 0.00 74 1017.2
20260506153137 16 144 4.8 11.3 0.00 0.00 0.00 75 1017.5
20260506152630 16 189 4.8 9.7 0.00 0.00 0.00 75 1017.5
20260506152122 16 49 1.6 9.7 0.00 0.00 0.00 74 1017.2
20260506151616 16 94 3.2 6.4 0.00 0.00 0.00 75 1017.2
20260506151107 16 77 4.8 6.4 0.00 0.00 0.00 74 1017.2
20260506150601 16 125 3.2 9.7 0.00 0.00 0.00 76 1017.2
20260506150054 16 357 1.6 9.7 0.00 0.00 0.00 77 1017.2
20260506145039 15 43 4.8 11.3 0.00 0.00 0.00 79 1017.2
20260506144532 15 53 4.8 11.3 0.00 0.00 0.00 78 1017.5
20260506144024 15 71 3.2 11.3 0.00 0.00 0.00 79 1017.5
20260506143516 15 36 6.4 11.3 0.00 0.00 0.00 79 1017.2
20260506143009 15 51 9.7 11.3 0.00 0.00 0.00 79 1017.2
20260506142502 15 3 6.4 9.7 0.00 0.00 0.00 79 1017.2
20260506141955 15 40 4.8 6.4 0.00 0.00 0.00 78 1017.2
20260506141448 14 4 3.2 4.8 0.00 0.00 0.00 78 1017.2
20260506140941 14 22 1.6 4.8 0.00 0.00 0.00 79 1017.2
20260506140433 13 352 0.0 4.8 0.00 0.00 0.00 80 1016.8
20260506135926 13 5 3.2 3.2 0.00 0.00 0.00 80 1017.2
20260506135419 13 338 1.6 3.2 0.00 0.00 0.00 81 1016.8
20260506134911 13 343 0.0 3.2 0.00 0.00 0.00 81 1016.8
20260506134404 12 339 0.0 1.6 0.00 0.00 0.00 83 1016.8
20260506133856 12 338 0.0 1.6 0.00 0.00 0.00 84 1016.8
20260506133349 12 329 0.0 1.6 0.00 0.00 0.00 84 1016.8
20260506132842 12 329 0.0 1.6 0.00 0.00 0.00 85 1016.8
20260506132336 12 330 1.6 3.2 0.00 0.00 0.00 85 1016.8
20260506131827 12 357 1.6 4.8 0.00 0.00 0.00 86 1016.8
20260506130813 11 330 0.0 1.6 0.00 0.00 0.00 86 1016.8
20260506130306 11 338 1.6 1.6 0.00 0.00 0.00 86 1016.5
20260506125251 11 326 1.6 1.6 0.00 0.00 0.00 85 1016.5
20260506124744 11 325 0.0 1.6 0.00 0.00 0.00 85 1016.5
20260506124237 12 324 0.0 3.2 0.00 0.00 0.00 85 1016.5
20260506123730 11 345 1.6 3.2 0.00 0.00 0.00 86 1016.5
20260506123223 11 345 1.6 3.2 0.00 0.00 0.00 86 1016.2
20260506122715 11 333 0.0 1.6 0.00 0.00 0.00 86 1016.5
20260506122208 11 328 0.0 1.6 0.00 0.00 0.00 86 1016.2
20260506121701 11 329 0.0 1.6 0.00 0.00 0.00 86 1016.2
20260506121153 11 328 0.0 1.6 0.00 0.00 0.00 86 1016.2
20260506120646 11 328 0.0 3.2 0.00 0.00 0.00 86 1016.2
20260506120139 11 326 1.6 3.2 0.00 0.00 0.00 86 1016.2
20260506114617 11 327 0.0 1.6 0.00 0.00 0.00 86 1016.2
20260506114110 11 328 0.0 3.2 0.00 0.00 0.00 86 1016.2
20260506113603 12 326 1.6 3.2 0.00 0.00 0.00 85 1015.8
20260506113056 12 324 1.6 3.2 0.00 0.00 0.00 86 1016.2
20260506112548 12 328 0.0 3.2 0.00 0.00 0.00 86 1016.2
20260506112041 12 337 1.6 3.2 0.00 0.00 0.00 86 1016.2
20260506111534 12 334 1.6 1.6 0.00 0.00 0.00 86 1016.2
20260506111026 12 332 0.0 1.6 0.00 0.00 0.00 86 1016.2
20260506110519 12 332 0.0 1.6 0.00 0.00 0.00 86 1016.2
20260506110012 11 328 0.0 1.6 0.00 0.00 0.00 87 1015.8
20260506104957 11 324 0.0 3.2 0.00 0.00 0.00 87 1016.2
20260506104450 11 322 0.0 3.2 0.00 0.00 0.00 87 1016.2
20260506103435 11 323 0.0 3.2 0.00 0.00 0.00 87 1016.2
20260506102928 11 324 1.6 3.2 0.00 0.00 0.00 87 1015.8
20260506101407 12 318 1.6 1.6 0.00 0.00 0.00 86 1016.2
20260506100352 12 325 0.0 1.6 0.00 0.00 0.00 86 1016.2
20260506095845 12 325 0.0 1.6 0.00 0.00 0.00 86 1016.2
20260506095338 12 325 1.6 4.8 0.00 0.00 0.00 86 1016.2
20260506094830 12 314 0.0 4.8 0.00 0.00 0.00 86 1016.2
20260506094323 12 333 1.6 3.2 0.00 0.00 0.00 86 1016.2
20260506093815 12 322 1.6 3.2 0.00 0.00 0.00 86 1016.2
20260506092801 12 326 1.6 3.2 0.00 0.00 0.00 86 1016.2
20260506092254 12 325 1.6 3.2 0.00 0.00 0.00 85 1016.2
20260506091239 12 328 0.0 3.2 0.00 0.00 0.00 85 1016.2
20260506090732 12 331 1.6 3.2 0.00 0.00 0.00 85 1016.2
20260506090225 12 318 0.0 1.6 0.00 0.00 0.00 85 1016.2
20260506085718 12 315 0.0 3.2 0.00 0.00 0.00 85 1016.2
20260506085211 12 328 0.0 3.2 0.00 0.00 0.00 85 1016.5
20260506084703 12 316 0.0 3.2 0.00 0.00 0.00 85 1016.5
20260506084155 12 313 0.0 3.2 0.00 0.00 0.00 85 1016.5
20260506083648 12 324 1.6 3.2 0.00 0.00 0.00 85 1016.5
20260506083141 12 334 1.6 3.2 0.00 0.00 0.00 85 1016.2
20260506082635 12 322 0.0 1.6 0.00 0.00 0.00 84 1016.5
20260506082127 12 314 0.0 1.6 0.00 0.00 0.00 84 1016.5
20260506081620 12 322 0.0 3.2 0.00 0.00 0.00 84 1016.5
20260506081113 12 310 0.0 3.2 0.00 0.00 0.00 84 1016.5
20260506080605 12 338 3.2 4.8 0.00 0.00 0.00 84 1016.5
20260506073521 12 325 3.2 4.8 0.00 0.00 0.00 82 1016.5
20260506073014 12 310 1.6 4.8 0.00 0.00 0.00 82 1016.5
20260506072507 12 325 1.6 3.2 0.00 0.00 0.00 82 1016.5
20260506072000 12 324 1.6 3.2 0.00 0.00 0.00 82 1016.8
20260506071452 12 321 1.6 3.2 0.00 0.00 0.00 82 1016.5
20260506070945 12 305 0.0 3.2 0.00 0.00 0.00 81 1016.5
20260506070437 12 331 1.6 3.2 0.00 0.00 0.00 81 1016.5
20260506062339 13 308 0.0 3.2 0.00 0.00 0.00 80 1016.2
20260506061832 13 337 3.2 3.2 0.00 0.00 0.00 80 1016.2
20260506061325 13 313 1.6 3.2 0.00 0.00 0.00 80 1016.2
20260506060310 13 312 1.6 3.2 0.00 0.00 0.00 80 1016.2
20260506050142 13 313 0.0 3.2 0.00 0.00 0.00 79 1015.5
20260506045128 13 321 0.0 3.2 0.00 0.00 0.00 79 1015.1
20260506044620 13 317 1.6 3.2 0.00 0.00 0.00 79 1015.1
20260506043606 14 322 0.0 3.2 0.00 0.00 0.00 78 1015.1
20260506043059 14 318 1.6 3.2 0.00 0.00 0.00 77 1015.1
20260506042552 14 306 1.6 1.6 0.00 0.00 0.00 77 1014.8
20260506042045 14 278 0.0 1.6 0.00 0.00 0.00 76 1014.8
20260506041537 14 278 0.0 1.6 0.00 0.00 0.00 76 1014.8
20260506041029 14 278 0.0 1.6 0.00 0.00 0.00 76 1014.8
20260506040522 15 277 0.0 1.6 0.00 0.00 0.00 75 1014.8
20260506040015 15 277 1.6 1.6 0.00 0.00 0.00 75 1014.8
20260506035508 15 269 1.6 1.6 0.00 0.00 0.00 75 1014.8
20260506035001 15 270 1.6 1.6 0.00 0.00 0.00 75 1014.5
20260506033946 15 263 0.0 3.2 0.00 0.00 0.00 74 1014.5
20260506033439 15 262 0.0 3.2 0.00 0.00 0.00 74 1014.5
20260506032931 15 265 1.6 4.8 0.00 0.00 0.00 74 1014.5
20260506032424 15 258 1.6 4.8 0.00 0.00 0.00 73 1014.5
20260506031917 15 265 1.6 6.4 0.00 0.00 0.00 73 1014.1
20260506031410 15 241 3.2 6.4 0.00 0.00 0.00 73 1014.1
20260506030903 15 262 3.2 9.7 0.00 0.00 0.00 74 1014.1
20260506030355 15 222 6.4 9.7 0.00 0.00 0.00 73 1014.1
20260506025340 15 247 6.4 9.7 0.00 0.00 0.00 73 1013.8
20260506024833 15 248 3.2 9.7 0.00 0.00 0.00 73 1013.8
20260506024327 15 218 1.6 6.4 0.00 0.00 0.00 73 1013.8
20260506023820 15 273 3.2 6.4 0.00 0.00 0.00 73 1013.8
20260506023311 15 217 4.8 11.3 0.00 0.00 0.00 73 1013.8
20260506022804 15 241 6.4 16.1 0.00 0.00 0.00 72 1013.4
20260506021749 15 224 6.4 14.5 0.00 0.00 0.00 73 1013.4
20260506020735 15 215 9.7 12.9 0.00 0.00 0.00 73 1013.4
20260506020227 15 229 6.4 16.1 0.00 0.00 0.00 72 1013.4
20260506015720 15 234 8.0 16.1 0.00 0.00 0.00 72 1013.4
20260506014705 16 231 6.4 14.5 0.00 0.00 0.00 69 1013.4
20260506013651 16 261 4.8 17.7 0.00 0.00 0.00 68 1013.4
20260506013144 16 220 11.3 17.7 0.00 0.00 0.00 67 1013.1
20260506012637 16 268 12.9 14.5 0.00 0.00 0.00 68 1013.1
20260506012130 16 238 6.4 12.9 0.00 0.00 0.00 68 1013.1
20260506011622 16 252 4.8 12.9 0.00 0.00 0.00 68 1013.1
20260506010608 15 250 8.0 16.1 0.00 0.00 0.00 70 1013.4
20260506010100 15 274 4.8 16.1 0.00 0.00 0.00 70 1013.1
20260506005553 15 258 9.7 17.7 0.00 0.00 0.00 70 1013.1
20260506005045 15 160 11.3 17.7 0.00 0.00 0.00 70 1013.1
20260506004538 15 247 9.7 20.9 0.00 0.00 0.00 69 1013.1
20260506004031 15 283 6.4 22.5 0.00 0.00 0.00 69 1013.1
20260506003524 15 223 14.5 22.5 0.00 0.00 0.00 68 1013.1
20260506003016 15 223 14.5 17.7 0.00 0.00 0.00 67 1013.1
20260506002002 15 217 12.9 20.9 0.00 0.00 0.00 67 1013.1
20260506001455 15 232 8.0 27.4 0.00 0.00 0.00 67 1013.1
20260506000948 16 231 12.9 27.4 0.00 0.00 0.00 66 1013.1
20260506000440 16 248 14.5 20.9 0.00 0.00 0.00 65 1013.1
20260505235933 16 233 12.9 22.5 0.00 0.00 0.00 66 1013.1
20260505235426 16 241 9.7 24.1 0.00 0.00 0.00 65 1013.1
20260505234918 16 201 14.5 24.1 0.00 0.00 0.00 65 1013.1
20260505234410 16 250 12.9 24.1 0.00 0.00 0.00 66 1013.1
20260505233903 16 231 17.7 24.1 0.00 0.00 0.00 64 1013.1
20260505233356 16 37 9.7 27.4 0.00 0.00 0.00 65 1013.1
20260505232849 16 250 11.3 27.4 0.00 0.00 0.00 68 1013.1
20260505232342 16 262 11.3 25.7 0.00 0.00 0.00 71 1012.8
20260505231835 15 248 12.9 27.4 0.00 0.00 0.00 73 1013.1
20260505230819 15 244 12.9 29.0 0.00 0.00 0.00 75 1013.1
20260505230313 15 227 11.3 29.0 0.00 0.00 0.00 76 1013.4
20260505225805 15 211 9.7 30.6 0.00 0.00 0.00 74 1013.4
20260505225258 15 134 16.1 30.6 0.00 0.00 0.00 72 1013.4
20260505224243 15 248 11.3 30.6 0.00 0.00 0.00 72 1013.4
20260505223736 15 262 19.3 30.6 0.00 0.00 0.00 71 1013.4
20260505223229 15 242 17.7 35.4 0.00 0.00 0.00 71 1013.4
20260505222722 15 260 19.3 35.4 0.00 0.00 0.00 69 1013.4
20260505222215 16 248 17.7 29.0 0.00 0.00 0.00 70 1013.4
20260505221200 16 220 20.9 30.6 0.00 0.00 0.00 71 1013.4
20260505220653 16 197 19.3 30.6 0.00 0.00 0.00 71 1013.8
20260505220145 16 239 14.5 30.6 0.00 0.00 0.00 68 1013.8
20260505215131 16 235 24.1 33.8 0.00 0.00 0.00 69 1013.4
20260505214624 16 225 22.5 33.8 0.00 0.00 0.00 67 1013.8
20260505214116 15 168 14.5 27.4 0.00 0.00 0.00 70 1013.8
20260505213608 16 244 19.3 29.0 0.00 0.00 0.00 68 1013.8
20260505213101 16 229 20.9 30.6 0.00 0.00 0.00 66 1013.8